User: anonymous   Login
Location: ???????
(55.4362°N, 38.1183°E)
Time: 03:51:34
(UTC+00:00)
Language:

AO-109 - Orbit

View from above orbital plane
View from above orbital plane
View from above satellite
View from above satellite

Ground track
Ground track

The orbit data is extracted from the following two-line orbital elements,

1 47311U 21002C   21332.92222262  .00002767  00000-0  12849-3 0  9998
2 47311  60.6873  35.1935 0035974 130.5100 229.9130 15.22469449 47904
Epoch (UTC): 28 November 2021 22:08:00
Eccentricity: 0.0035974
inclination: 60.6873°
perigee height: 473 km
apogee height: 523 km
right ascension of ascending node: 35.1935°
argument of perigee: 130.5100°
revolutions per day: 15.22469449
mean anomaly at epoch: 229.9130°
orbit number at epoch: 4790

The dashed part of the orbit path shows where the satellite is in the earth's shadow,  

DLR